Year,Month,Day,Hour,Minute,Value (Times are PST for windspeed in km/hr)
2017,11,21,00,00,0.00
2017,11,21,00,01,0.10
2017,11,21,00,02,2.20
2017,11,21,00,03,2.70
2017,11,21,00,04,2.50
2017,11,21,00,05,3.00
2017,11,21,00,06,2.80
2017,11,21,00,07,2.90
2017,11,21,00,08,1.50
2017,11,21,00,09,1.40
2017,11,21,00,10,1.00
2017,11,21,00,11,4.40
2017,11,21,00,12,2.60
2017,11,21,00,13,1.30
2017,11,21,00,14,0.80
2017,11,21,00,15,1.60
2017,11,21,00,16,2.40
2017,11,21,00,17,3.00
2017,11,21,00,18,3.70
2017,11,21,00,19,3.40
2017,11,21,00,20,4.30
2017,11,21,00,21,4.00
2017,11,21,00,22,4.90
2017,11,21,00,23,4.30
2017,11,21,00,24,5.20
2017,11,21,00,25,2.90
2017,11,21,00,26,4.30
2017,11,21,00,27,3.80
2017,11,21,00,28,4.20
2017,11,21,00,29,4.20
2017,11,21,00,30,3.90
2017,11,21,00,31,4.10
2017,11,21,00,32,3.50
2017,11,21,00,33,4.50
2017,11,21,00,34,4.00
2017,11,21,00,35,3.70
2017,11,21,00,36,2.80
2017,11,21,00,37,3.50
2017,11,21,00,38,2.90
2017,11,21,00,39,1.90
2017,11,21,00,40,1.80
2017,11,21,00,41,0.70
2017,11,21,00,42,1.10
2017,11,21,00,43,1.20
2017,11,21,00,44,1.70
2017,11,21,00,45,2.10
2017,11,21,00,46,1.50
2017,11,21,00,47,1.60
2017,11,21,00,48,0.90
2017,11,21,00,49,0.40
2017,11,21,00,50,0.10
2017,11,21,00,51,0.10
2017,11,21,00,52,0.00
2017,11,21,00,53,1.60
2017,11,21,00,54,0.70
2017,11,21,00,55,2.70
2017,11,21,00,56,2.10
2017,11,21,00,57,1.20
2017,11,21,00,58,2.30
2017,11,21,00,59,2.20
2017,11,21,01,00,2.70
2017,11,21,01,01,2.20
2017,11,21,01,02,1.90
2017,11,21,01,03,0.90
2017,11,21,01,04,0.10
2017,11,21,01,05,0.00
2017,11,21,01,06,0.00
2017,11,21,01,07,0.40
2017,11,21,01,08,1.00
2017,11,21,01,09,1.60
2017,11,21,01,10,1.60
2017,11,21,01,11,2.10
2017,11,21,01,12,0.50
2017,11,21,01,13,0.40
2017,11,21,01,14,0.90
2017,11,21,01,15,1.30
2017,11,21,01,16,1.80
2017,11,21,01,17,1.10
2017,11,21,01,18,0.00
2017,11,21,01,19,0.00
2017,11,21,01,20,0.00
2017,11,21,01,21,2.10
2017,11,21,01,22,3.20
2017,11,21,01,23,1.20
2017,11,21,01,24,1.30
2017,11,21,01,25,2.50
2017,11,21,01,26,1.80
2017,11,21,01,27,1.90
2017,11,21,01,28,1.60
2017,11,21,01,29,1.10
2017,11,21,01,30,1.70
2017,11,21,01,31,1.20
2017,11,21,01,32,1.00
2017,11,21,01,33,0.40
2017,11,21,01,34,0.80
2017,11,21,01,35,1.60
2017,11,21,01,36,2.10
2017,11,21,01,37,1.70
2017,11,21,01,38,0.40
2017,11,21,01,39,0.60
2017,11,21,01,40,0.80
2017,11,21,01,41,1.00
2017,11,21,01,42,1.30
2017,11,21,01,43,0.80
2017,11,21,01,44,1.10
2017,11,21,01,45,2.30
2017,11,21,01,46,2.50
2017,11,21,01,47,0.50
2017,11,21,01,48,0.10
2017,11,21,01,49,0.00
2017,11,21,01,50,0.20
2017,11,21,01,51,1.10
2017,11,21,01,52,3.90
2017,11,21,01,53,4.20
2017,11,21,01,54,3.90
2017,11,21,01,55,3.00
2017,11,21,01,56,4.70
2017,11,21,01,57,3.70
2017,11,21,01,58,4.20
2017,11,21,01,59,5.20
2017,11,21,02,00,4.10
2017,11,21,02,01,3.40
2017,11,21,02,02,2.50
2017,11,21,02,03,2.70
2017,11,21,02,04,1.30
2017,11,21,02,05,3.30
2017,11,21,02,06,3.50
2017,11,21,02,07,3.40
2017,11,21,02,08,3.80
2017,11,21,02,09,3.50
2017,11,21,02,10,3.60
2017,11,21,02,11,2.70
2017,11,21,02,12,1.40
2017,11,21,02,13,0.30
2017,11,21,02,14,0.40
2017,11,21,02,15,0.30
2017,11,21,02,16,1.30
2017,11,21,02,17,1.20
2017,11,21,02,18,0.80
2017,11,21,02,19,1.40
2017,11,21,02,20,1.30
2017,11,21,02,21,1.60
2017,11,21,02,22,1.70
2017,11,21,02,23,2.40
2017,11,21,02,24,1.80
2017,11,21,02,25,1.80
2017,11,21,02,26,3.20
2017,11,21,02,27,1.90
2017,11,21,02,28,3.00
2017,11,21,02,29,3.10
2017,11,21,02,30,2.10
2017,11,21,02,31,1.50
2017,11,21,02,32,1.00
2017,11,21,02,33,1.10
2017,11,21,02,34,0.90
2017,11,21,02,35,1.90
2017,11,21,02,36,1.80
2017,11,21,02,37,0.10
2017,11,21,02,38,0.00
2017,11,21,02,39,0.00
2017,11,21,02,40,1.00
2017,11,21,02,41,1.30
2017,11,21,02,42,0.90
2017,11,21,02,43,1.80
2017,11,21,02,44,2.00
2017,11,21,02,45,1.60
2017,11,21,02,46,2.10
2017,11,21,02,47,2.60
2017,11,21,02,48,2.70
2017,11,21,02,49,2.30
2017,11,21,02,50,3.00
2017,11,21,02,51,2.90
2017,11,21,02,52,3.80
2017,11,21,02,53,5.10
2017,11,21,02,54,5.70
2017,11,21,02,55,5.00
2017,11,21,02,56,2.30
2017,11,21,02,57,2.10
2017,11,21,02,58,2.10
2017,11,21,02,59,1.60
2017,11,21,03,00,3.00
2017,11,21,03,01,1.70
2017,11,21,03,02,1.70
2017,11,21,03,03,1.50
2017,11,21,03,04,2.20
2017,11,21,03,05,0.50
2017,11,21,03,06,0.00
2017,11,21,03,07,0.00
2017,11,21,03,08,0.00
2017,11,21,03,09,0.80
2017,11,21,03,10,2.10
2017,11,21,03,11,5.00
2017,11,21,03,12,4.40
2017,11,21,03,13,4.20
2017,11,21,03,14,3.00
2017,11,21,03,15,2.80
2017,11,21,03,16,2.10
2017,11,21,03,17,2.10
2017,11,21,03,18,2.90
2017,11,21,03,19,1.70
2017,11,21,03,20,2.00
2017,11,21,03,21,2.00
2017,11,21,03,22,2.40
2017,11,21,03,23,2.20
2017,11,21,03,24,2.50
2017,11,21,03,25,2.40
2017,11,21,03,26,2.10
2017,11,21,03,27,1.70
2017,11,21,03,28,5.70
2017,11,21,03,29,4.50
2017,11,21,03,30,2.50
2017,11,21,03,31,0.70
2017,11,21,03,32,2.00
2017,11,21,03,33,2.30
2017,11,21,03,34,4.80
2017,11,21,03,35,3.50
2017,11,21,03,36,2.70
2017,11,21,03,37,5.40
2017,11,21,03,38,5.50
2017,11,21,03,39,3.30
2017,11,21,03,40,3.40
2017,11,21,03,41,4.50
2017,11,21,03,42,3.00
2017,11,21,03,43,2.50
2017,11,21,03,44,4.80
2017,11,21,03,45,5.90
2017,11,21,03,46,6.40
2017,11,21,03,47,6.30
2017,11,21,03,48,6.80
2017,11,21,03,49,3.80
2017,11,21,03,50,2.90
2017,11,21,03,51,2.70
2017,11,21,03,52,2.70
2017,11,21,03,53,4.50
2017,11,21,03,54,4.50
2017,11,21,03,55,4.70
2017,11,21,03,56,2.90
2017,11,21,03,57,0.90
2017,11,21,03,58,1.10
2017,11,21,03,59,7.10
2017,11,21,04,00,5.80
2017,11,21,04,01,4.90
2017,11,21,04,02,3.70
2017,11,21,04,03,3.90
2017,11,21,04,04,4.60
2017,11,21,04,05,2.60
2017,11,21,04,06,2.70
2017,11,21,04,07,2.20
2017,11,21,04,08,1.90
2017,11,21,04,09,3.10
2017,11,21,04,10,1.10
2017,11,21,04,11,1.60
2017,11,21,04,12,2.60
2017,11,21,04,13,3.60
2017,11,21,04,14,2.80
2017,11,21,04,15,2.10
2017,11,21,04,16,2.90
2017,11,21,04,17,2.00
2017,11,21,04,18,1.80
2017,11,21,04,19,1.90
2017,11,21,04,20,3.90
2017,11,21,04,21,3.40
2017,11,21,04,22,3.70
2017,11,21,04,23,4.50
2017,11,21,04,24,3.30
2017,11,21,04,25,4.00
2017,11,21,04,26,6.70
2017,11,21,04,27,8.30
2017,11,21,04,28,3.10
2017,11,21,04,29,1.50
2017,11,21,04,30,5.90
2017,11,21,04,31,3.80
2017,11,21,04,32,3.10
2017,11,21,04,33,2.40
2017,11,21,04,34,4.90
2017,11,21,04,35,4.20
2017,11,21,04,36,2.80
2017,11,21,04,37,2.90
2017,11,21,04,38,5.30
2017,11,21,04,39,3.40
2017,11,21,04,40,3.70
2017,11,21,04,41,3.90
2017,11,21,04,42,2.10
2017,11,21,04,43,4.10
2017,11,21,04,44,3.00
2017,11,21,04,45,4.90
2017,11,21,04,46,2.60
2017,11,21,04,47,4.70
2017,11,21,04,48,2.60
2017,11,21,04,49,3.80
2017,11,21,04,50,4.30
2017,11,21,04,51,4.80
2017,11,21,04,52,3.70
2017,11,21,04,53,3.40
2017,11,21,04,54,2.80
2017,11,21,04,55,6.40
2017,11,21,04,56,4.40
2017,11,21,04,57,6.90
2017,11,21,04,58,6.30
2017,11,21,04,59,4.70
2017,11,21,05,00,7.60
2017,11,21,05,01,4.50
2017,11,21,05,02,6.20
2017,11,21,05,03,5.50
2017,11,21,05,04,6.40
2017,11,21,05,05,6.90
2017,11,21,05,06,5.10
2017,11,21,05,07,3.20
2017,11,21,05,08,5.10
2017,11,21,05,09,2.90
2017,11,21,05,10,2.40
2017,11,21,05,11,2.30
2017,11,21,05,12,1.40
2017,11,21,05,13,2.90
2017,11,21,05,14,3.80
2017,11,21,05,15,4.40
2017,11,21,05,16,4.60
2017,11,21,05,17,3.20
2017,11,21,05,18,2.90
2017,11,21,05,19,1.40
2017,11,21,05,20,2.10
2017,11,21,05,21,4.10
2017,11,21,05,22,6.90
2017,11,21,05,23,7.10
2017,11,21,05,24,6.40
2017,11,21,05,25,6.20
2017,11,21,05,26,8.30
2017,11,21,05,27,5.90
2017,11,21,05,28,5.50
2017,11,21,05,29,4.00
2017,11,21,05,30,6.20
2017,11,21,05,31,4.10
2017,11,21,05,32,3.10
2017,11,21,05,33,5.60
2017,11,21,05,34,3.70
2017,11,21,05,35,4.60
2017,11,21,05,36,2.00
2017,11,21,05,37,2.80
2017,11,21,05,38,8.60
2017,11,21,05,39,2.10
2017,11,21,05,40,4.90
2017,11,21,05,41,3.50
2017,11,21,05,42,5.30
2017,11,21,05,43,4.70
2017,11,21,05,44,3.40
2017,11,21,05,45,4.90
2017,11,21,05,46,2.00
2017,11,21,05,47,2.60
2017,11,21,05,48,5.70
2017,11,21,05,49,6.40
2017,11,21,05,50,5.40
2017,11,21,05,51,3.10
2017,11,21,05,52,5.40
2017,11,21,05,53,6.40
2017,11,21,05,54,4.80
2017,11,21,05,55,5.40
2017,11,21,05,56,3.90
2017,11,21,05,57,3.60
2017,11,21,05,58,6.40
2017,11,21,05,59,3.10
2017,11,21,06,00,2.80
2017,11,21,06,01,7.80
2017,11,21,06,02,3.30
2017,11,21,06,03,3.90
2017,11,21,06,04,3.90
2017,11,21,06,05,3.20
2017,11,21,06,06,6.60
2017,11,21,06,07,6.40
2017,11,21,06,08,6.90
2017,11,21,06,09,7.80
2017,11,21,06,10,6.60
2017,11,21,06,11,3.40
2017,11,21,06,12,3.90
2017,11,21,06,13,3.30
2017,11,21,06,14,4.30
2017,11,21,06,15,5.60
2017,11,21,06,16,4.70
2017,11,21,06,17,4.70
2017,11,21,06,18,3.20
2017,11,21,06,19,3.30
2017,11,21,06,20,3.00
2017,11,21,06,21,2.50
2017,11,21,06,22,5.50
2017,11,21,06,23,7.40
2017,11,21,06,24,7.60
2017,11,21,06,25,4.70
2017,11,21,06,26,6.60
2017,11,21,06,27,5.40
2017,11,21,06,28,3.60
2017,11,21,06,29,6.40
2017,11,21,06,30,7.60
2017,11,21,06,31,4.80
2017,11,21,06,32,3.80
2017,11,21,06,33,2.30
2017,11,21,06,34,2.10
2017,11,21,06,35,5.20
2017,11,21,06,36,3.80
2017,11,21,06,37,2.40
2017,11,21,06,38,3.30
2017,11,21,06,39,4.60
2017,11,21,06,40,2.90
2017,11,21,06,41,3.00
2017,11,21,06,42,2.80
2017,11,21,06,43,3.20
2017,11,21,06,44,2.90
2017,11,21,06,45,8.30
2017,11,21,06,46,4.00
2017,11,21,06,47,4.90
2017,11,21,06,48,6.60
2017,11,21,06,49,3.20
2017,11,21,06,50,2.20
2017,11,21,06,51,1.80
2017,11,21,06,52,2.10
2017,11,21,06,53,3.80
2017,11,21,06,54,3.30
2017,11,21,06,55,2.50
2017,11,21,06,56,1.10
2017,11,21,06,57,2.40
2017,11,21,06,58,2.00
2017,11,21,06,59,2.30
2017,11,21,07,00,4.60
2017,11,21,07,01,2.50
2017,11,21,07,02,2.20
2017,11,21,07,03,3.00
2017,11,21,07,04,2.60
2017,11,21,07,05,3.40
2017,11,21,07,06,4.00
2017,11,21,07,07,2.40
2017,11,21,07,08,1.20
2017,11,21,07,09,2.10
2017,11,21,07,10,2.80
2017,11,21,07,11,4.90
2017,11,21,07,12,3.30
2017,11,21,07,13,4.50
2017,11,21,07,14,4.90
2017,11,21,07,15,5.20
2017,11,21,07,16,2.70
2017,11,21,07,17,1.70
2017,11,21,07,18,3.30
2017,11,21,07,19,4.80
2017,11,21,07,20,2.50
2017,11,21,07,21,1.40
2017,11,21,07,22,2.40
2017,11,21,07,23,2.50
2017,11,21,07,24,1.90
2017,11,21,07,25,2.10
2017,11,21,07,26,2.30
2017,11,21,07,27,3.30
2017,11,21,07,28,4.70
2017,11,21,07,29,6.20
2017,11,21,07,30,6.10
2017,11,21,07,31,5.40
2017,11,21,07,32,5.20
2017,11,21,07,33,3.00
2017,11,21,07,34,2.10
2017,11,21,07,35,0.90
2017,11,21,07,36,2.40
2017,11,21,07,37,3.10
2017,11,21,07,38,2.60
2017,11,21,07,39,4.40
2017,11,21,07,40,2.80
2017,11,21,07,41,3.60
2017,11,21,07,42,3.50
2017,11,21,07,43,7.50
2017,11,21,07,44,4.90
2017,11,21,07,45,5.00
2017,11,21,07,46,5.70
2017,11,21,07,47,5.30
2017,11,21,07,48,6.20
2017,11,21,07,49,4.90
2017,11,21,07,50,4.80
2017,11,21,07,51,6.40
2017,11,21,07,52,7.20
2017,11,21,07,53,4.30
2017,11,21,07,54,0.50
2017,11,21,07,55,4.40
2017,11,21,07,56,3.00
2017,11,21,07,57,1.60
2017,11,21,07,58,3.30
2017,11,21,07,59,5.10
2017,11,21,08,00,0.60
2017,11,21,08,01,0.10
2017,11,21,08,02,0.80
2017,11,21,08,03,1.20
2017,11,21,08,04,1.80
2017,11,21,08,05,4.00
2017,11,21,08,06,3.00
2017,11,21,08,07,2.80
2017,11,21,08,08,2.60
2017,11,21,08,09,4.30
2017,11,21,08,10,1.80
2017,11,21,08,11,3.10
2017,11,21,08,12,2.90
2017,11,21,08,13,5.00
2017,11,21,08,14,2.70
2017,11,21,08,15,1.10
2017,11,21,08,16,4.30
2017,11,21,08,17,2.20
2017,11,21,08,18,3.80
2017,11,21,08,19,2.80
2017,11,21,08,20,4.10
2017,11,21,08,21,2.80
2017,11,21,08,22,4.50
2017,11,21,08,23,1.60
2017,11,21,08,24,2.40
2017,11,21,08,25,3.90
2017,11,21,08,26,2.30
2017,11,21,08,27,3.20
2017,11,21,08,28,4.00
2017,11,21,08,29,3.40
2017,11,21,08,30,4.30
2017,11,21,08,31,2.80
2017,11,21,08,32,4.00
2017,11,21,08,33,6.00
2017,11,21,08,34,3.70
2017,11,21,08,35,6.40
2017,11,21,08,36,2.60
2017,11,21,08,37,3.40
2017,11,21,08,38,2.20
2017,11,21,08,39,4.90
2017,11,21,08,40,2.70
2017,11,21,08,41,2.00
2017,11,21,08,42,0.90
2017,11,21,08,43,4.70
2017,11,21,08,44,4.90
2017,11,21,08,45,3.20
2017,11,21,08,46,4.90
2017,11,21,08,47,4.40
2017,11,21,08,48,3.30
2017,11,21,08,49,3.20
2017,11,21,08,50,3.10
2017,11,21,08,51,3.00
2017,11,21,08,52,6.20
2017,11,21,08,53,4.90
2017,11,21,08,54,3.50
2017,11,21,08,55,7.10
2017,11,21,08,56,4.80
2017,11,21,08,57,5.80
2017,11,21,08,58,4.20
2017,11,21,08,59,3.30
2017,11,21,09,00,2.30
2017,11,21,09,01,1.70
2017,11,21,09,02,1.30
2017,11,21,09,03,3.40
2017,11,21,09,04,2.70
2017,11,21,09,05,1.90
2017,11,21,09,06,2.80
2017,11,21,09,07,1.70
2017,11,21,09,08,2.20
2017,11,21,09,09,2.90
2017,11,21,09,10,2.80
2017,11,21,09,11,3.00
2017,11,21,09,12,1.70
2017,11,21,09,13,2.90
2017,11,21,09,14,4.10
2017,11,21,09,15,3.50
2017,11,21,09,16,5.10
2017,11,21,09,17,5.10
2017,11,21,09,18,3.00
2017,11,21,09,19,3.60
2017,11,21,09,20,3.20
2017,11,21,09,21,3.50
2017,11,21,09,22,4.50
2017,11,21,09,23,4.00
2017,11,21,09,24,3.40
2017,11,21,09,25,0.90
2017,11,21,09,26,3.00
2017,11,21,09,27,2.60
2017,11,21,09,28,3.80
2017,11,21,09,29,3.10
2017,11,21,09,30,1.20
2017,11,21,09,31,1.80
2017,11,21,09,32,2.70
2017,11,21,09,33,6.80
2017,11,21,09,34,2.20
2017,11,21,09,35,0.80
2017,11,21,09,36,3.40
2017,11,21,09,37,3.40
2017,11,21,09,38,1.90
2017,11,21,09,39,2.70
2017,11,21,09,40,4.20
2017,11,21,09,41,2.40
2017,11,21,09,42,1.40
2017,11,21,09,43,3.00
2017,11,21,09,44,3.60
2017,11,21,09,45,2.90
2017,11,21,09,46,2.90
2017,11,21,09,47,3.60
2017,11,21,09,48,3.80
2017,11,21,09,49,2.80
2017,11,21,09,50,4.50
2017,11,21,09,51,6.60
2017,11,21,09,52,6.40
2017,11,21,09,53,6.60
2017,11,21,09,54,5.90
2017,11,21,09,55,4.70
2017,11,21,09,56,6.00
2017,11,21,09,57,3.50
2017,11,21,09,58,4.00
2017,11,21,09,59,2.90
2017,11,21,10,00,1.60
2017,11,21,10,01,8.00
2017,11,21,10,02,5.50
2017,11,21,10,03,2.10
2017,11,21,10,04,3.30
2017,11,21,10,05,6.10
2017,11,21,10,06,4.40
2017,11,21,10,07,6.10
2017,11,21,10,08,5.50
2017,11,21,10,09,6.20
2017,11,21,10,10,5.00
2017,11,21,10,11,4.70
2017,11,21,10,12,3.20
2017,11,21,10,13,2.70
2017,11,21,10,14,7.10
2017,11,21,10,15,6.70
2017,11,21,10,16,4.60
2017,11,21,10,17,2.50
2017,11,21,10,18,6.80
2017,11,21,10,19,5.80
2017,11,21,10,20,4.70
2017,11,21,10,21,1.70
2017,11,21,10,22,2.90
2017,11,21,10,23,6.30
2017,11,21,10,24,5.30
2017,11,21,10,25,4.20
2017,11,21,10,26,5.40
2017,11,21,10,27,7.70
2017,11,21,10,28,5.50
2017,11,21,10,29,2.40
2017,11,21,10,30,3.30
2017,11,21,10,31,4.40
2017,11,21,10,32,5.80
2017,11,21,10,33,7.20
2017,11,21,10,34,6.20
2017,11,21,10,35,1.90
2017,11,21,10,36,3.00
2017,11,21,10,37,5.80
2017,11,21,10,38,3.90
2017,11,21,10,39,4.10
2017,11,21,10,40,3.80
2017,11,21,10,41,1.90
2017,11,21,10,42,3.40
2017,11,21,10,43,3.30
2017,11,21,10,44,2.80
2017,11,21,10,45,5.70
2017,11,21,10,46,3.30
2017,11,21,10,47,2.90
2017,11,21,10,48,3.60
2017,11,21,10,49,3.80
2017,11,21,10,50,3.20
2017,11,21,10,51,3.70
2017,11,21,10,52,5.60
2017,11,21,10,53,2.20
2017,11,21,10,54,1.80
2017,11,21,10,55,2.50
2017,11,21,10,56,1.70
2017,11,21,10,57,0.20
2017,11,21,10,58,0.20
2017,11,21,10,59,0.80
2017,11,21,11,00,0.40
2017,11,21,11,01,0.70
2017,11,21,11,02,3.10
2017,11,21,11,03,4.60
2017,11,21,11,04,1.30
2017,11,21,11,05,0.80
2017,11,21,11,06,0.20
2017,11,21,11,07,1.40
2017,11,21,11,08,5.50
2017,11,21,11,09,5.20
2017,11,21,11,10,2.10
2017,11,21,11,11,2.10
2017,11,21,11,12,2.50
2017,11,21,11,13,4.60
2017,11,21,11,14,3.50
2017,11,21,11,15,3.50
2017,11,21,11,16,3.60
2017,11,21,11,17,2.20
2017,11,21,11,18,3.50
2017,11,21,11,19,2.40
2017,11,21,11,20,4.20
2017,11,21,11,21,7.90
2017,11,21,11,22,4.90
2017,11,21,11,23,3.20
2017,11,21,11,24,5.30
2017,11,21,11,25,5.50
2017,11,21,11,26,5.00
2017,11,21,11,27,4.20
2017,11,21,11,28,6.40
2017,11,21,11,29,6.20
2017,11,21,11,30,6.00
2017,11,21,11,31,5.70
2017,11,21,11,32,5.80
2017,11,21,11,33,2.90
2017,11,21,11,34,1.50
2017,11,21,11,35,4.20
2017,11,21,11,36,4.00
2017,11,21,11,37,3.20
2017,11,21,11,38,5.30
2017,11,21,11,39,6.00
2017,11,21,11,40,2.60
2017,11,21,11,41,1.90
2017,11,21,11,42,2.40
2017,11,21,11,43,2.90
2017,11,21,11,44,4.00
2017,11,21,11,45,5.80
2017,11,21,11,46,6.30
2017,11,21,11,47,3.40
2017,11,21,11,48,8.80
2017,11,21,11,49,5.40
2017,11,21,11,50,6.60
2017,11,21,11,51,5.40
2017,11,21,11,52,4.80
2017,11,21,11,53,4.40
2017,11,21,11,54,3.20
2017,11,21,11,55,4.90
2017,11,21,11,56,2.80
2017,11,21,11,57,1.90
2017,11,21,11,58,6.60
2017,11,21,11,59,3.30
2017,11,21,12,00,3.90
2017,11,21,12,01,5.00
2017,11,21,12,02,3.00
2017,11,21,12,03,3.90
2017,11,21,12,04,2.50
2017,11,21,12,05,1.00
2017,11,21,12,06,2.80
2017,11,21,12,07,8.10
2017,11,21,12,08,6.40
2017,11,21,12,09,7.00
2017,11,21,12,10,8.00
2017,11,21,12,11,4.70
2017,11,21,12,12,6.80
2017,11,21,12,13,5.90
2017,11,21,12,14,6.40
2017,11,21,12,15,5.60
2017,11,21,12,16,2.80
2017,11,21,12,17,3.70
2017,11,21,12,18,3.50
2017,11,21,12,19,3.10
2017,11,21,12,20,3.00
2017,11,21,12,21,0.30
2017,11,21,12,22,1.70
2017,11,21,12,23,1.80
2017,11,21,12,24,2.80
2017,11,21,12,25,3.30
2017,11,21,12,26,3.30
2017,11,21,12,27,2.40
2017,11,21,12,28,2.60
2017,11,21,12,29,2.20
2017,11,21,12,30,2.00
2017,11,21,12,31,1.70
2017,11,21,12,32,2.90
2017,11,21,12,33,6.60
2017,11,21,12,34,9.30
2017,11,21,12,35,6.50
2017,11,21,12,36,2.40
2017,11,21,12,37,4.00
2017,11,21,12,38,2.20
2017,11,21,12,39,4.20
2017,11,21,12,40,4.00
2017,11,21,12,41,2.50
2017,11,21,12,42,3.80
2017,11,21,12,43,5.30
2017,11,21,12,44,5.80
2017,11,21,12,45,5.90
2017,11,21,12,46,3.30
2017,11,21,12,47,3.70
2017,11,21,12,48,4.60
2017,11,21,12,49,2.90
2017,11,21,12,50,6.30
2017,11,21,12,51,7.30
2017,11,21,12,52,6.20
2017,11,21,12,53,8.90
2017,11,21,12,54,6.70
2017,11,21,12,55,6.20
2017,11,21,12,56,6.30
2017,11,21,12,57,4.50
2017,11,21,12,58,4.20
2017,11,21,12,59,8.40
2017,11,21,13,00,4.30
2017,11,21,13,01,4.90
2017,11,21,13,02,3.90
2017,11,21,13,03,2.40
2017,11,21,13,04,2.90
2017,11,21,13,05,2.40
2017,11,21,13,06,4.30
2017,11,21,13,07,4.80
2017,11,21,13,08,3.50
2017,11,21,13,09,3.30
2017,11,21,13,10,2.80
2017,11,21,13,11,2.30
2017,11,21,13,12,3.90
2017,11,21,13,13,2.30
2017,11,21,13,14,2.30
2017,11,21,13,15,4.00
2017,11,21,13,16,6.50
2017,11,21,13,17,7.00
2017,11,21,13,18,6.30
2017,11,21,13,19,9.70
2017,11,21,13,20,6.70
2017,11,21,13,21,3.40
2017,11,21,13,22,3.60
2017,11,21,13,23,3.90
2017,11,21,13,24,3.00
2017,11,21,13,25,2.70
2017,11,21,13,26,3.10
2017,11,21,13,27,4.50
2017,11,21,13,28,2.20
2017,11,21,13,29,2.80
2017,11,21,13,30,3.50
2017,11,21,13,31,3.40
2017,11,21,13,32,1.80
2017,11,21,13,33,3.70
2017,11,21,13,34,3.90
2017,11,21,13,35,4.00
2017,11,21,13,36,5.30
2017,11,21,13,37,6.20
2017,11,21,13,38,5.10
2017,11,21,13,39,6.60
2017,11,21,13,40,6.50
2017,11,21,13,41,7.90
2017,11,21,13,42,5.10
2017,11,21,13,43,4.70
2017,11,21,13,44,1.10
2017,11,21,13,45,1.80
2017,11,21,13,46,3.30
2017,11,21,13,47,2.60
2017,11,21,13,48,3.30
2017,11,21,13,49,1.20
2017,11,21,13,50,2.60
2017,11,21,13,51,5.30
2017,11,21,13,52,4.70
2017,11,21,13,53,2.30
2017,11,21,13,54,2.70
2017,11,21,13,55,3.30
2017,11,21,13,56,5.40
2017,11,21,13,57,5.20
2017,11,21,13,58,4.10
2017,11,21,13,59,4.60
2017,11,21,14,00,3.00
2017,11,21,14,01,4.00
2017,11,21,14,02,7.60
2017,11,21,14,03,2.90
2017,11,21,14,04,4.60
2017,11,21,14,05,3.60
2017,11,21,14,06,3.30
2017,11,21,14,07,2.80
2017,11,21,14,08,2.90
2017,11,21,14,09,3.10
2017,11,21,14,10,4.10
2017,11,21,14,11,3.30
2017,11,21,14,12,2.50
2017,11,21,14,13,2.70
2017,11,21,14,14,1.90
2017,11,21,14,15,1.20
2017,11,21,14,16,0.10
2017,11,21,14,17,6.90
2017,11,21,14,18,4.10
2017,11,21,14,19,5.60
2017,11,21,14,20,4.90
2017,11,21,14,21,4.00
2017,11,21,14,22,5.90
2017,11,21,14,23,1.60
2017,11,21,14,24,2.80
2017,11,21,14,25,3.10
2017,11,21,14,26,3.30
2017,11,21,14,27,1.90
2017,11,21,14,28,3.90
2017,11,21,14,29,3.60
2017,11,21,14,30,2.30
2017,11,21,14,31,2.10
2017,11,21,14,32,1.40
2017,11,21,14,33,3.60
2017,11,21,14,34,1.50
2017,11,21,14,35,3.00
2017,11,21,14,36,1.80
2017,11,21,14,37,1.50
2017,11,21,14,38,4.00
2017,11,21,14,39,4.00
2017,11,21,14,40,2.60
2017,11,21,14,41,2.60
2017,11,21,14,42,3.30
2017,11,21,14,43,2.80
2017,11,21,14,44,1.90
2017,11,21,14,45,2.60
2017,11,21,14,46,2.20
2017,11,21,14,47,3.20
2017,11,21,14,48,1.10
2017,11,21,14,49,1.30
2017,11,21,14,50,2.40
2017,11,21,14,51,0.50
2017,11,21,14,52,0.20
2017,11,21,14,53,0.70
2017,11,21,14,54,2.50
2017,11,21,14,55,2.10
2017,11,21,14,56,1.20
2017,11,21,14,57,2.30
2017,11,21,14,58,3.10
2017,11,21,14,59,5.40
2017,11,21,15,00,3.10
2017,11,21,15,01,3.90
2017,11,21,15,02,2.50
2017,11,21,15,03,0.70
2017,11,21,15,04,3.70
2017,11,21,15,05,2.20
2017,11,21,15,06,0.80
2017,11,21,15,07,1.40
2017,11,21,15,08,2.10
2017,11,21,15,09,1.90
2017,11,21,15,10,1.80
2017,11,21,15,11,1.10
2017,11,21,15,12,1.10
2017,11,21,15,13,0.60
2017,11,21,15,14,0.40
2017,11,21,15,15,0.50
2017,11,21,15,16,0.50
2017,11,21,15,17,1.10
2017,11,21,15,18,2.80
2017,11,21,15,19,1.00
2017,11,21,15,20,1.90
2017,11,21,15,21,2.70
2017,11,21,15,22,1.50
2017,11,21,15,23,0.80
2017,11,21,15,24,0.10
2017,11,21,15,25,1.20
2017,11,21,15,26,1.70
2017,11,21,15,27,1.40
2017,11,21,15,28,0.40
2017,11,21,15,29,1.80
2017,11,21,15,30,2.20
2017,11,21,15,31,0.60
2017,11,21,15,32,1.80
2017,11,21,15,33,1.40
2017,11,21,15,34,1.30
2017,11,21,15,35,1.60
2017,11,21,15,36,2.80
2017,11,21,15,37,1.80
2017,11,21,15,38,1.80
2017,11,21,15,39,2.10
2017,11,21,15,40,1.70
2017,11,21,15,41,2.40
2017,11,21,15,42,3.00
2017,11,21,15,43,4.20
2017,11,21,15,44,2.70
2017,11,21,15,45,3.40
2017,11,21,15,46,4.60
2017,11,21,15,47,5.30
2017,11,21,15,48,4.30
2017,11,21,15,49,2.70
2017,11,21,15,50,0.90
2017,11,21,15,51,2.00
2017,11,21,15,52,1.80
2017,11,21,15,53,0.60
2017,11,21,15,54,2.90
2017,11,21,15,55,2.80
2017,11,21,15,56,1.20
2017,11,21,15,57,0.60
2017,11,21,15,58,2.40
2017,11,21,15,59,1.20
2017,11,21,16,00,1.80
2017,11,21,16,01,0.50
2017,11,21,16,02,0.40
2017,11,21,16,03,0.00
2017,11,21,16,04,1.60
2017,11,21,16,05,0.60
2017,11,21,16,06,2.50
2017,11,21,16,07,2.40
2017,11,21,16,08,1.70
2017,11,21,16,09,1.10
2017,11,21,16,10,0.60
2017,11,21,16,11,1.60
2017,11,21,16,12,0.30
2017,11,21,16,13,0.30
2017,11,21,16,14,1.10
2017,11,21,16,15,0.40
2017,11,21,16,16,1.50
2017,11,21,16,17,2.10
2017,11,21,16,18,1.90
2017,11,21,16,19,0.90
2017,11,21,16,20,1.00
2017,11,21,16,21,1.90
2017,11,21,16,22,1.50
2017,11,21,16,23,3.40
2017,11,21,16,24,2.00
2017,11,21,16,25,0.80
2017,11,21,16,26,2.50
2017,11,21,16,27,4.50
2017,11,21,16,28,2.30
2017,11,21,16,29,3.80
2017,11,21,16,30,1.60
2017,11,21,16,31,2.50
2017,11,21,16,32,1.70
2017,11,21,16,33,0.50
2017,11,21,16,34,1.80
2017,11,21,16,35,0.30
2017,11,21,16,36,0.00
2017,11,21,16,37,0.30
2017,11,21,16,38,0.30
2017,11,21,16,39,0.80
2017,11,21,16,40,1.30
2017,11,21,16,41,0.80
2017,11,21,16,42,0.40
2017,11,21,16,43,0.00
2017,11,21,16,44,0.00
2017,11,21,16,45,0.60
2017,11,21,16,46,2.70
2017,11,21,16,47,1.70
2017,11,21,16,48,0.30
2017,11,21,16,49,0.00
2017,11,21,16,50,0.40
2017,11,21,16,51,0.60
2017,11,21,16,52,0.40
2017,11,21,16,53,0.60
2017,11,21,16,54,0.30
2017,11,21,16,55,0.70
2017,11,21,16,56,1.10
2017,11,21,16,57,2.10
2017,11,21,16,58,1.20
2017,11,21,16,59,2.10
2017,11,21,17,00,1.70
2017,11,21,17,01,0.30
2017,11,21,17,02,0.20
2017,11,21,17,03,1.30
2017,11,21,17,04,0.80
2017,11,21,17,05,0.10
2017,11,21,17,06,1.30
2017,11,21,17,07,1.10
2017,11,21,17,08,1.00
2017,11,21,17,09,1.70
2017,11,21,17,10,1.20
2017,11,21,17,11,1.10
2017,11,21,17,12,2.30
2017,11,21,17,13,3.50
2017,11,21,17,14,2.20
2017,11,21,17,15,2.50
2017,11,21,17,16,2.90
2017,11,21,17,17,1.70
2017,11,21,17,18,2.30
2017,11,21,17,19,2.50
2017,11,21,17,20,2.80
2017,11,21,17,21,3.20
2017,11,21,17,22,0.40
2017,11,21,17,23,0.40
2017,11,21,17,24,0.70
2017,11,21,17,25,0.90
2017,11,21,17,26,0.10
2017,11,21,17,27,1.30
2017,11,21,17,28,1.60
2017,11,21,17,29,2.10
2017,11,21,17,30,1.40
2017,11,21,17,31,0.20
2017,11,21,17,32,0.60
2017,11,21,17,33,2.30
2017,11,21,17,34,1.90
2017,11,21,17,35,0.40
2017,11,21,17,36,2.00
2017,11,21,17,37,0.50
2017,11,21,17,38,0.20
2017,11,21,17,39,3.30
2017,11,21,17,40,2.10
2017,11,21,17,41,0.80
2017,11,21,17,42,1.00
2017,11,21,17,43,0.10
2017,11,21,17,44,0.60
2017,11,21,17,45,0.10
2017,11,21,17,46,0.30
2017,11,21,17,47,1.40
2017,11,21,17,48,0.40
2017,11,21,17,49,0.70
2017,11,21,17,50,0.20
2017,11,21,17,51,0.20
2017,11,21,17,52,0.20
2017,11,21,17,53,0.70
2017,11,21,17,54,0.60
2017,11,21,17,55,1.10
2017,11,21,17,56,1.30
2017,11,21,17,57,0.60
2017,11,21,17,58,2.20
2017,11,21,17,59,1.40
2017,11,21,18,00,0.10
2017,11,21,18,01,1.20
2017,11,21,18,02,2.40
2017,11,21,18,03,0.80
2017,11,21,18,04,0.40
2017,11,21,18,05,1.20
2017,11,21,18,06,0.90